Погода в Рибейран-дас-Невис

Бразилия     19°45′59″S   44°04′59″W
темп.,
°C
ветер,
м/с
пор.,
м/с
влажн.,
%
обл.,
%
осадки,
мм/ч
давл.,
гПа
погр.,
м
27 февраля, сб
сб2700:00+19юв1295100 2.9 101559
03:00+18в1397100 4.0 1014165
06:00+19в2795100 0.7 1015351
09:00+21в4588100 0.7 1016523
12:00+25всв4568100 0.1 10161145
15:00+24всв3566100 0.1 1013820
18:00+21в2477100 0.0 1013148
21:00+19в3685100 0.0 1015168
28 февраля, вс
вс2800:00+19вюв268696 0.0 1015188
03:00+19вюв388998 0.1 1014323
06:00+18в41086100 0.0 1015541
09:00+20в4883100 0.0 1016694
12:00+24всв4668100 0.0 10151179
15:00+25св4666100 0.0 10121359
18:00+22всв358398 0.1 1012192
21:00+19в388799 0.2 1014228
1 марта, пн
пн100:00+18в249393 0.0 1015173
03:00+17вюв259580 0.0 1014160
06:00+17в24968 0.0 1015140
09:00+22в478154 0.0 1016669
12:00+25всв4568100 0.0 10151097
15:00+25всв4667100 0.0 10121121
18:00+21всв347948 0.0 1012161
21:00+19вюв368957 0.0 1014170
2 марта, вт
вт200:00+18вюв2492100 0.0 1015145
03:00+17вюв2695100 0.0 1015181
06:00+17в2495100 0.0 1016123
09:00+21всв357990 0.0 1018706
12:00+25св346280 0.0 10171309
15:00+26св346087 0.0 10141643
18:00+22всв237639 0.0 1013106
21:00+19вюв358935 0.0 1016125
3 марта, ср
ср300:00+18в22940 0.0 101773
03:00+17в229524 0.1 101660
06:00+17в119599 0.3 101836
09:00+22св238299 0.6 1019524
12:00+25св3370100 0.4 10181029
15:00+27ссв336080 0.6 10141435
18:00+22св237540 0.0 1014110
21:00+19вюв227536 0.0 101743